RH
48 44 42 55 77 77 80 66 57 58 74 85 84 84 73 60 60 59 57 56 58 62 68 76 83 81 75 74 77 76 74 72 71 74 76 78 81 84 89 94 91 68 54
89 86 62 44 58 67 74 68 61 61 78 88 96 99 90 81 72 70 70 73 75 76 80 85 88 91 97 97 88 89 91 86 86 76 74 76 76 84 88 77 54 42 42
100 100 92 72 53 52 47 43 48 55 90 94 100 100 100 100 100 98 92 87 85 91 97 100 100 100 100 100 100 100 100 92 82 75 80 89 84 62 49 39 37 37 40
99 96 100 98 93 61 47 38 38 39 54 73 87 100 100 98 90 90 89 90 90 94 100 100 100 100 98 99 98 88 80 87 94 96 76 60 46 36 32 35 37 42 39
100 89 100 100 100 97 70 63 42 42 59 68 81 99 92 73 58 70 73 72 81 78 79 84 92 97 100 99 95 86 76 70 68 53 44 39 32 29 36 38 35 29 25
100 100 96 100 100 100 100 100 93 59 48 58 70 59 58 62 69 62 64 72 75 86 98 98 100 100 91 84 75 70 67 50 38 37 35 33 35 34 40 32 30 31 35
98 100 78 95 100 100 100 100 100 100 97 84 74 72 78 79 84 84 87 89 95 100 100 100 96 89 85 70 59 48 51 39 33 32 33 40 41 38 45 41 32 32 28
100 100 100 86 100 100 100 100 100 100 100 100 100 100 100 100 99 100 100 100 100 100 100 100 99 89 82 90 87 61 58 44 43 39 42 53 55 47 48 42 40 33 27
100 100 100 100 100 100 100 100 100 100 100 100 100 100 100 100 100 100 100 100 100 100 100 100 100 98 96 90 94 94 65 54 38 30 43 46 41 45 45 46 39 32 28
100 100 100 92 96 95 100 100 100 100 100 100 100 100 100 100 100 100 100 100 100 100 100 100 100 100 94 93 99 83 67 44 40 47 39 45 43 50 49 47 37 34 30
99 100 100 98 100 100 100 99 100 100 100 100 100 100 100 100 100 100 100 100 100 100 97 100 100 98 100 86 66 50 43 44 36 48 48 52 45 44 46 46 48 38 30
72 100 95 100 92 85 92 98 87 100 100 98 100 100 98 100 100 100 100 100 100 100 100 100 100 93 87 65 53 48 36 36 48 53 51 51 50 48 43 45 44 38 39
44 66 100 100 97 100 100 75 82 99 87 99 100 100 100 100 100 100 100 100 100 100 100 100 100 97 79 60 59 54 55 51 40 50 49 42 38 43 42 38 32 36 52
33 69 65 100 100 100 100 100 89 100 92 97 100 84 76 91 100 100 100 100 100 100 100 80 100 100 100 99 79 58 63 65 64 56 50 50 42 36 35 32 34 43 61
25 40 55 92 100 100 100 100 100 100 100 89 95 100 100 100 100 100 100 100 100 100 99 85 61 77 63 72 72 63 72 75 61 66 52 58 46 49 42 45 46 63 69
28 31 48 70 100 100 100 100 100 100 100 100 100 67 64 85 86 69 71 80 90 96 100 100 94 81 75 80 74 79 80 76 76 66 64 72 51 52 48 49 52 61 71
27 26 33 53 84 100 100 100 100 100 100 100 100 98 88 98 100 100 100 100 99 100 95 98 96 82 94 97 98 95 89 85 72 78 73 64 55 48 52 50 60 54 68
28 24 32 38 50 80 100 100 100 100 100 100 100 100 100 100 100 100 100 100 100 100 100 100 100 96 100 100 100 100 99 100 98 90 77 86 81 58 80 79 56 69 84
30 26 27 41 44 51 72 88 100 100 100 100 100 100 100 100 100 100 100 100 100 100 100 100 100 100 100 100 97 98 85 80 88 80 88 81 66 74 64 76 83 67 84
19 28 26 34 47 60 58 68 89 100 100 100 100 100 100 100 100 100 100 100 100 100 100 100 95 95 100 100 100 92 86 85 100 98 81 70 76 60 80 74 51 68 38
16 26 34 37 48 51 52 60 70 86 98 100 100 100 100 100 100 100 99 100 100 100 100 100 100 99 100 100 100 100 93 91 89 88 85 63 82 81 70 48 45 40 32
14 21 39 44 56 57 58 57 58 64 78 97 100 100 100 100 100 100 100 100 100 100 100 100 100 100 100 100 100 100 100 94 78 69 50 45 70 77 67 46 38 36 28
15 20 30 50 58 64 80 67 56 56 62 89 85 100 100 100 100 100 100 100 100 100 100 100 100 100 100 99 100 85 79 73 56 48 55 87 81 68 46 36 24 26 29
21 20 26 39 58 65 75 70 75 75 58 51 59 98 100 100 100 100 100 100 100 100 95 84 100 100 98 89 78 79 71 54 52 60 70 95 53 48 29 24 28 25 16
24 25 25 30 45 58 69 79 87 72 66 59 56 62 90 98 96 96 89 82 93 100 94 96 93 84 88 76 57 60 64 63 64 59 53 56 32 30 34 34 18 11 10
30 29 27 32 38 49 58 66 68 68 66 63 58 73 76 66 74 72 82 88 86 86 94 85 82 88 74 63 70 65 71 55 57 54 34 32 30 33 29 16 12 9 8
Wind_Speed
49 45 45 44 44 41 41 39 38 39 40 38 38 42 41 40 41 39 38 39 40 41 43 44 45 46 47 47 47 47 48 48 48 48 49 50 50 50 51 53 55 59 61
51 49 48 46 45 45 43 42 40 39 40 40 39 43 42 40 41 40 39 39 39 41 43 45 46 47 48 49 50 50 51 51 51 51 51 50 50 51 54 57 60 60 60
53 52 52 49 46 46 44 43 43 41 40 40 39 42 42 38 39 40 40 42 42 42 43 46 48 50 52 53 53 51 50 51 51 51 50 52 55 58 60 60 59 61 60
59 55 52 50 49 47 47 44 43 41 41 40 39 42 44 41 41 41 42 43 42 43 45 46 46 48 50 51 52 53 53 53 53 55 57 58 59 61 61 61 61 57 55
60 57 53 50 50 50 48 47 46 45 45 43 42 44 46 43 41 43 44 45 45 47 49 51 52 53 52 54 57 57 58 59 59 60 61 61 62 63 63 61 57 55 58
63 59 54 50 49 50 50 49 49 48 48 48 47 45 46 48 48 47 47 48 51 53 55 55 56 57 58 60 62 64 65 61 62 64 67 69 68 66 64 58 57 59 63
63 59 55 59 57 56 53 50 49 50 51 51 50 50 49 51 52 52 52 56 55 58 58 59 58 58 60 63 65 66 63 64 67 70 75 71 69 66 63 61 62 66 71
65 59 61 62 60 60 56 54 50 50 51 51 51 52 53 52 53 55 55 57 55 55 58 59 60 61 63 64 65 68 70 72 73 74 72 69 67 65 66 68 72 75 84
70 65 63 66 68 67 63 58 51 51 53 52 51 52 53 55 57 57 57 55 54 55 56 58 61 66 68 67 68 71 77 78 79 79 75 72 71 71 69 76 79 85 93
83 75 68 70 68 68 65 64 61 61 60 56 54 51 53 54 52 51 52 54 55 55 57 60 64 66 68 70 73 77 79 80 82 82 82 78 75 75 80 82 89 90 106
94 85 77 73 71 76 70 70 70 71 68 64 57 57 58 56 57 57 55 53 54 56 60 61 66 68 70 74 78 83 81 83 85 86 85 83 83 86 89 95 98 106 117
102 97 81 83 81 82 75 76 71 65 68 69 63 61 62 56 59 63 63 60 57 60 61 65 68 71 76 80 82 84 83 87 87 87 89 90 92 91 93 99 101 110 118
103 100 98 96 85 78 80 76 77 74 72 71 65 66 69 66 64 65 66 66 66 66 63 64 70 74 80 83 83 88 90 90 92 90 90 93 95 90 96 106 110 118 119
105 107 103 104 95 85 81 82 83 78 75 78 76 74 73 75 73 70 74 75 73 76 77 72 73 73 80 88 89 94 93 96 97 98 98 98 98 104 106 112 118 123 122
96 107 106 102 104 101 87 89 81 76 81 81 79 72 74 74 79 74 75 76 77 81 87 84 87 84 89 90 95 96 97 99 99 101 104 103 105 106 114 119 123 125 130
91 99 109 106 106 106 101 90 85 77 77 82 84 85 84 82 82 83 82 81 80 83 86 87 87 91 95 95 100 100 101 102 105 105 104 108 112 115 121 124 126 129 134
97 94 100 109 108 107 101 101 92 87 85 84 84 84 83 83 81 81 82 83 86 90 94 96 97 96 99 99 101 101 102 103 103 106 109 115 119 124 130 131 130 137 139
95 99 88 97 110 105 107 99 103 100 96 91 89 86 82 81 79 80 85 85 90 90 90 95 95 94 98 101 105 102 102 105 107 112 115 120 123 131 130 135 141 145 146
97 90 86 86 90 104 106 104 102 101 98 98 99 93 94 89 88 90 89 92 92 95 96 92 95 98 101 103 101 102 107 111 111 118 123 126 134 132 136 146 148 145 143
92 93 84 81 83 88 99 105 102 97 97 94 90 92 91 90 91 87 92 95 94 93 96 95 97 100 103 104 103 108 115 117 119 120 130 137 137 138 145 152 146 142 134
82 88 86 80 80 87 87 92 98 97 97 100 88 84 88 88 85 92 96 96 93 91 97 99 98 101 104 109 114 116 121 125 125 127 134 140 141 143 151 144 130 136 132
82 83 89 83 83 81 84 89 90 92 90 94 101 100 92 94 94 94 94 96 100 98 102 105 105 106 109 112 116 121 121 125 132 134 138 138 143 151 143 145 140 125 119
83 80 86 87 86 85 88 88 85 87 88 93 90 95 98 99 102 98 98 101 105 106 106 108 108 111 113 118 118 126 130 133 135 136 138 145 148 138 142 134 115 125 124
81 81 82 88 91 91 92 88 86 90 89 90 88 95 98 95 95 100 101 103 106 105 104 112 114 116 118 122 126 128 130 133 139 141 141 144 135 134 123 123 126 126 124
72 82 81 84 90 92 92 91 95 91 86 86 88 91 96 96 96 97 99 100 99 106 107 111 115 118 121 125 128 131 133 138 140 138 130 131 135 117 126 133 130 120 114
67 74 81 82 86 90 93 96 95 92 92 91 88 88 90 93 95 97 99 103 105 107 111 115 117 121 125 129 133 135 134 134 133 134 127 110 120 123 124 125 122 113 108
Wind_Direction
254 256 255 255 255 255 256 258 257 258 257 258 259 264 264 263 262 264 266 268 269 271 272 273 273 274 275 277 278 279 281 282 281 280 282 283 284 285 285 287 289 293 296
252 254 256 257 257 256 256 257 257 257 255 256 258 262 263 263 264 264 266 269 272 273 274 276 278 279 279 279 280 280 280 280 280 281 281 284 285 286 287 288 291 296 301
251 251 256 256 257 259 259 257 254 254 256 255 256 261 264 265 266 268 270 271 273 274 275 276 277 278 278 278 278 278 277 279 282 284 286 287 286 288 290 291 300 301 300
258 255 257 257 257 256 259 259 259 259 257 255 257 260 264 266 268 271 272 273 274 275 275 276 277 278 279 279 278 277 278 279 282 284 286 287 288 290 294 301 300 303 301
252 255 254 257 259 256 255 258 259 260 259 258 256 260 264 267 267 268 270 272 273 274 276 277 278 279 278 277 277 279 280 282 283 283 285 287 290 295 299 298 298 300 301
248 249 249 251 255 255 255 256 259 260 261 258 257 257 263 267 268 270 272 272 273 277 275 277 280 279 281 281 281 281 281 282 284 289 291 292 294 297 297 295 293 299 306
239 243 248 251 255 254 255 257 259 259 259 261 261 261 263 265 269 270 274 276 275 280 277 279 278 280 281 282 283 284 288 287 293 296 296 294 293 296 299 295 295 298 302
233 238 247 245 250 252 253 255 256 259 260 262 263 263 264 265 268 270 275 277 278 277 280 279 280 283 286 285 285 289 289 293 297 298 298 298 298 296 296 292 292 295 305
233 233 238 243 248 248 248 250 252 256 260 263 265 267 268 268 270 273 273 272 274 274 278 279 280 285 285 285 285 287 291 295 297 299 300 299 297 295 290 290 294 299 307
234 232 226 233 239 243 244 245 250 253 254 258 262 264 268 273 271 272 270 274 273 274 278 277 280 283 283 285 287 290 292 294 299 298 299 298 293 292 289 289 293 300 310
230 230 228 231 235 243 241 243 248 250 250 254 253 261 266 266 266 266 267 270 273 277 279 279 280 282 283 283 286 288 292 295 299 299 302 303 298 297 295 295 296 301 306
228 227 225 231 235 237 239 243 245 241 247 251 250 258 262 261 269 267 264 265 268 270 276 281 281 283 284 285 288 290 292 297 302 303 303 302 301 296 297 300 300 303 305
228 229 226 231 234 239 239 241 246 243 245 247 249 256 260 258 262 269 270 266 267 269 271 276 281 282 284 286 287 290 294 296 300 302 301 302 302 301 300 300 303 307 308
227 228 228 229 231 233 237 242 247 246 250 252 254 257 259 262 261 264 266 268 265 270 269 268 272 277 282 281 284 290 293 296 298 298 299 300 302 301 301 303 306 308 307
229 226 228 227 229 233 235 240 241 246 249 251 254 260 262 262 261 264 267 268 269 270 273 274 274 275 281 284 289 292 295 294 295 296 298 298 299 300 304 307 305 308 306
229 227 227 227 231 233 233 238 239 244 252 252 254 256 257 260 263 269 271 269 269 273 278 275 277 283 285 284 291 292 292 293 294 295 297 297 299 302 304 307 308 308 309
229 227 226 227 229 232 235 236 239 244 249 253 255 256 258 262 267 268 268 269 273 278 281 284 285 287 287 289 289 293 294 294 295 296 295 296 300 301 304 308 307 310 310
227 230 227 228 230 231 234 238 238 241 248 250 252 254 259 262 265 267 269 273 275 277 280 280 283 286 286 289 289 290 291 293 293 296 297 298 299 302 306 307 309 310 310
226 230 228 228 232 233 235 238 239 242 246 249 252 255 254 258 263 267 269 273 274 278 279 279 281 283 284 286 286 287 290 294 297 297 296 298 302 306 308 308 309 309 310
225 226 229 228 231 235 236 238 241 243 244 248 252 255 257 261 264 266 268 270 274 277 280 279 282 283 284 285 286 291 294 294 295 295 298 302 304 305 309 308 308 308 310
225 224 227 226 229 234 238 240 241 243 244 246 251 253 256 260 260 264 268 271 271 274 278 279 282 283 285 286 290 290 291 293 296 298 302 304 306 305 309 311 309 311 310
225 223 225 226 230 233 237 241 243 244 246 248 250 253 255 256 260 263 267 267 272 275 278 279 282 283 286 286 288 291 294 295 297 300 302 304 305 307 308 308 310 307 307
227 226 225 226 230 234 238 241 245 247 247 248 252 253 255 256 259 262 266 269 271 274 277 282 285 288 288 288 289 289 294 296 298 300 304 302 305 305 305 306 306 307 308
228 227 228 225 229 233 238 242 245 247 249 252 254 254 257 260 263 266 269 272 274 277 280 283 284 287 289 290 293 295 296 298 300 301 302 300 303 302 305 305 307 307 307
230 229 230 230 230 233 238 241 244 247 251 254 256 258 259 262 266 268 272 276 278 281 283 286 287 290 291 293 294 297 298 298 299 302 303 300 304 303 305 305 306 307 309
232 231 229 232 233 236 239 242 247 249 252 255 260 262 264 266 269 273 276 276 279 281 284 287 289 291 292 294 295 296 297 297 300 301 301 304 304 304 304 304 306 309 308